Location: Calvin Observatory
(42.9309°N, 85.5886°W)
Time: 10:18:10
(UTC-05:00)

ISS - Visible Passes

Search period start: 24 January 2017 00:00
Search period end: 03 February 2017 00:00
Orbit: 399 x 409 km, 51.6° (Epoch: 25 January)

Date Brightness Start Highest point End Pass type
(mag) Time Alt. Az. Time Alt. Az. Time Alt. Az.
26 Jan -0.8 19:42:33 10° S 19:43:09 13° S 19:43:09 13° S visible
27 Jan -1.0 18:51:52 10° SSE 18:53:03 12° SE 18:53:29 11° ESE visible
27 Jan -0.2 20:25:48 10° WSW 20:26:10 13° WSW 20:26:10 13° WSW visible
28 Jan -2.8 19:33:39 10° SW 19:36:25 46° SSE 19:36:25 46° SSE visible
29 Jan -2.0 18:41:51 10° SSW 18:44:38 26° SE 18:46:34 15° E visible
29 Jan -0.8 20:17:50 10° W 20:19:15 22° W 20:19:15 22° W visible
30 Jan -3.3 19:25:20 10° WSW 19:28:36 73° NNW 19:29:19 50° NE visible
31 Jan -3.2 18:33:03 10° SW 18:36:17 62° SE 18:39:18 12° ENE visible
31 Jan -1.0 20:10:08 10° W 20:11:57 22° NW 20:11:57 22° NW visible
01 Feb -2.2 19:17:23 10° W 19:20:29 37° NNW 19:21:52 24° NNE visible
02 Feb -2.9 18:24:48 10° WSW 18:28:02 60° NNW 18:31:17 10° NE visible
02 Feb -1.0 20:02:29 10° WNW 20:04:22 19° NNW 20:04:22 19° NNW visible
